Station: Lady Elliot Island  

  Atmospheric Gas Attenuation - ITU Rec 676-11   ----------------- dB/100km -----------------
Date Time Temp RH % AH g/m3 Dew Point Wind Direction Speed kph Gust kph Barometer mB Rainfall Since 9am 24GHz 47GHz 76GHz 122GHz 134GHz 241GHz
01/09 23:40 20.8 78 14.12 16.8 15 24 1024.9 0 30.9 33.4 59.3 156.3 164.2 569.1
01/09 23:30 21.1 78 14.37 17.1 17 26 1025 0 31.4 33.7 60.2 158.7 167.2 579.5
01/09 23:20 21 75 13.74 16.4 17 24 1025 0 30.1 32.6 57.5 151.5 158.3 548.7
01/09 23:10 21 66 12.09 14.4 19 24 1025.1 0 26.6 29.8 50.5 132.9 135.4 468.7
01/09 23:00 21 66 12.09 14.4 20 26 1025.2 0 26.6 29.8 50.5 132.9 135.4 468.7
01/09 22:50 20.9 67 12.2 14.5 20 28 1025.3 0 26.8 30.0 51.0 134.3 137.1 474.6
01/09 22:40 20.9 67 12.2 14.5 20 26 1025.3 0 26.8 30.0 51.0 134.3 137.1 474.6
01/09 22:30 20.9 69 12.57 15 17 24 1025.4 0 27.6 30.7 52.6 138.4 142.2 492.3
01/09 22:20 20.7 67 12.06 14.4 17 24 1025.4 0 26.5 29.9 50.6 133.1 135.5 469.1
01/09 22:10 20.7 70 12.6 15 19 26 1025.3 0 27.7 30.8 52.8 139.1 142.9 495.0
01/09 22:00 20.8 71 12.85 15.4 19 24 1025.4 0 28.2 31.2 53.8 141.8 146.2 506.5
01/09 21:50 20.6 69 12.35 14.7 19 26 1025.4 0 27.2 30.4 51.8 136.5 139.7 483.6
01/09 21:40 20.7 70 12.6 15 20 26 1025.5 0 27.7 30.8 52.8 139.1 143.0 495.0
01/09 21:30 20.7 69 12.42 14.8 20 28 1025.5 0 27.3 30.5 52.1 137.1 140.5 486.4
01/09 21:20 20.7 74 13.32 15.9 20 28 1025.5 0 29.2 32.0 55.9 147.3 153.0 530.2
01/09 21:10 20.4 74 13.09 15.6 22 30 1025.4 0 28.7 31.7 55.1 145.2 150.4 520.8
01/09 21:00 20.5 75 13.34 15.9 20 26 1025.5 0 29.3 32.1 56.1 147.9 153.7 532.5
01/09 20:50 20.3 73 12.84 15.3 20 26 1025.6 0 28.2 31.4 54.1 142.6 147.1 509.3
01/09 20:40 20.4 74 13.09 15.6 20 28 1025.7 0 28.7 31.8 55.1 145.3 150.4 521.0
01/09 20:30 20.4 74 13.09 15.6 20 30 1025.7 0 28.7 31.8 55.1 145.3 150.4 521.0
01/09 20:20 20.4 72 12.74 15.2 22 28 1025.7 0 28.0 31.1 53.6 141.3 145.5 503.8
01/09 20:10 20.4 75 13.27 15.8 20 28 1025.7 0 29.1 32.1 55.9 147.3 152.9 529.8
01/09 20:00 20 72 12.44 14.8 24 30 1025.6 0 27.4 30.8 52.6 138.6 142.0 491.8
01/09 19:50 20.3 75 13.19 15.7 20 28 1025.6 0 29.0 32.0 55.6 146.6 152.0 526.5
01/09 19:40 20.2 70 12.24 14.6 20 24 1025.5 0 26.9 30.4 51.6 136.0 138.9 480.8
01/09 19:30 20.1 72 12.51 14.9 20 24 1025.4 0 27.5 30.8 52.8 139.2 142.8 494.5
01/09 19:20 20.3 64 11.25 13.3 20 24 1025.4 0 24.8 28.7 47.5 124.9 125.3 433.3
01/09 19:10 20.1 66 11.47 13.6 19 24 1025.3 0 25.3 29.1 48.5 127.6 128.6 444.7
01/09 19:00 19.9 68 11.68 13.8 19 22 1025.2 0 25.8 29.5 49.5 130.2 131.7 455.8
01/09 18:50 20 70 12.1 14.4 19 22 1025.2 0 26.7 30.2 51.2 134.7 137.3 475.2
01/09 18:40 19.9 68 11.68 13.8 19 22 1025.2 0 25.8 29.5 49.5 130.2 131.7 455.8
01/09 18:30 20.1 71 12.34 14.7 17 24 1025 0 27.2 30.5 52.1 137.2 140.4 486.1
01/09 18:20 20.2 72 12.59 15 17 20 1025 0 27.7 30.9 53.1 139.8 143.7 497.6
01/09 18:10 20.2 71 12.41 14.8 19 24 1024.9 0 27.3 30.6 52.3 137.8 141.2 488.8
01/09 18:00 20.2 71 12.41 14.8 17 20 1024.8 0 27.3 30.6 52.3 137.8 141.2 488.8
01/09 17:50 20.1 67 11.65 13.8 20 26 1024.7 0 25.7 29.4 49.2 129.5 130.9 453.0
01/09 17:40 20.1 71 12.34 14.7 19 24 1024.7 0 27.2 30.5 52.1 137.2 140.4 486.0
01/09 17:30 20.1 72 12.51 14.9 20 26 1024.6 0 27.5 30.8 52.8 139.1 142.7 494.2
01/09 17:20 20.3 71 12.49 14.9 20 26 1024.6 0 27.5 30.7 52.6 138.5 142.1 491.9
01/09 17:10 20.3 72 12.66 15.1 20 24 1024.6 0 27.8 31.0 53.3 140.4 144.4 500.2
01/09 17:00 20.5 72 12.81 15.3 22 28 1024.6 0 28.1 31.2 53.8 141.7 146.2 506.2
01/09 16:50 20.8 73 13.22 15.8 22 30 1024.7 0 29.0 31.8 55.4 145.9 151.3 524.3
01/09 16:40 21.2 72 13.34 16 22 30 1024.6 0 29.2 31.8 55.6 146.5 152.2 527.4
01/09 16:30 21.5 72 13.58 16.2 20 28 1024.6 0 29.7 32.2 56.4 148.7 155.0 537.1
01/09 16:20 21.8 68 13.05 15.6 20 28 1024.5 0 28.6 31.1 53.9 142.1 147.0 509.3
01/09 16:10 21.8 64 12.28 14.7 22 28 1024.4 0 26.9 29.8 50.7 133.5 136.5 472.6
01/09 16:00 22.2 66 12.96 15.5 20 26 1024.4 0 28.3 30.8 53.3 140.3 145.0 502.3
01/09 15:50 22 65 12.61 15.1 20 28 1024.4 0 27.6 30.3 51.9 136.8 140.6 486.9
01/09 15:40 22.3 64 12.64 15.2 20 26 1024.4 0 27.7 30.3 51.9 136.6 140.4 486.5
01/09 15:30 22.5 64 12.78 15.4 20 28 1024.3 0 27.9 30.4 52.3 137.8 142.0 491.8
01/09 15:20 22.5 62 12.38 14.9 22 30 1024.5 0 27.1 29.8 50.7 133.4 136.6 473.1
01/09 15:10 22.6 62 12.45 15 22 28 1024.5 0 27.2 29.8 50.9 134.0 137.4 475.7
01/09 15:00 22.9 63 12.87 15.5 24 32 1024.6 0 28.1 30.4 52.4 138.1 142.5 493.7
01/09 14:50 23.2 61 12.68 15.3 20 28 1024.6 0 27.7 30.0 51.5 135.5 139.4 482.9
01/09 14:40 23.2 60 12.47 15 20 28 1024.6 0 27.2 29.7 50.6 133.2 136.6 473.1
01/09 14:30 22.9 60 12.26 14.7 22 30 1024.7 0 26.8 29.4 49.9 131.5 134.3 465.2
01/09 14:20 22.8 60 12.19 14.6 24 30 1024.7 0 26.7 29.4 49.7 130.9 133.6 462.5
01/09 14:10 23.1 60 12.4 14.9 20 28 1024.8 0 27.1 29.6 50.4 132.7 135.8 470.5
01/09 14:00 23.4 61 12.83 15.5 22 28 1024.8 0 28.0 30.2 51.9 136.8 141.0 488.7
01/09 13:50 23.1 60 12.4 14.9 22 28 1025 0 27.1 29.6 50.4 132.7 135.9 470.6
01/09 13:40 23 59 12.13 14.6 24 32 1025 0 26.5 29.2 49.4 130.0 132.5 458.7
01/09 13:30 23.3 58 12.13 14.6 24 30 1025.1 0 26.5 29.1 49.2 129.5 132.0 457.0
01/09 13:20 23.3 58 12.13 14.6 26 33 1025.2 0 26.5 29.1 49.2 129.5 132.0 457.0
01/09 13:10 23.2 58 12.06 14.5 24 30 1025.3 0 26.4 29.0 49.0 128.9 131.2 454.4
01/09 13:00 23.4 60 12.62 15.2 22 30 1025.5 0 27.5 29.9 51.1 134.6 138.3 479.2
01/09 12:50 23.3 56 11.71 14 24 30 1025.6 0 25.6 28.5 47.5 125.1 126.5 438.0
01/09 12:40 23.1 58 11.99 14.4 24 30 1025.7 0 26.2 29.0 48.8 128.4 130.5 451.9
01/09 12:30 23.1 59 12.2 14.7 24 30 1025.8 0 26.7 29.3 49.6 130.6 133.3 461.6
01/09 12:20 23.2 57 11.85 14.2 24 32 1026 0 25.9 28.7 48.2 126.8 128.6 445.0
01/09 12:10 23.4 59 12.41 14.9 24 32 1026.2 0 27.1 29.6 50.3 132.5 135.6 469.7
01/09 12:00 23.4 61 12.83 15.5 26 33 1026.3 0 28.0 30.3 52.0 137.0 141.2 489.3
01/09 11:50 23.3 59 12.34 14.8 26 32 1026.6 0 27.0 29.5 50.1 131.9 134.9 467.2
01/09 11:40 23.4 59 12.41 14.9 26 33 1026.7 0 27.1 29.6 50.3 132.5 135.6 469.9
01/09 11:30 21.9 60 11.58 13.8 26 32 1026.9 0 25.4 28.8 47.9 126.1 127.2 440.3
01/09 11:20 23.1 59 12.2 14.7 24 32 1027 0 26.7 29.4 49.7 130.8 133.4 462.0
01/09 11:10 23.3 60 12.54 15.1 24 32 1027.1 0 27.4 29.9 50.9 134.1 137.6 476.6
01/09 11:00 22 72 13.97 16.7 20 30 1027.2 0 30.5 32.7 57.8 152.5 159.8 553.8
01/09 10:50 22.5 70 13.98 16.8 19 30 1027.3 0 30.5 32.6 57.5 151.7 158.9 550.8
01/09 10:40 22.6 70 14.06 16.9 22 32 1027.5 0 30.6 32.7 57.8 152.4 159.8 554.1
01/09 10:30 22.2 69 13.55 16.2 20 26 1027.7 0 29.6 32.0 55.9 147.4 153.5 532.0
01/09 10:20 22.1 71 13.86 16.6 24 30 1027.8 0 30.2 32.5 57.3 151.1 158.1 547.9
01/09 10:10 22 71 13.78 16.5 22 32 1027.9 0 30.1 32.4 57.1 150.4 157.2 544.8
01/09 10:00 22.5 71 14.18 17 22 28 1027.8 0 30.9 32.9 58.4 154.0 161.8 560.9
01/09 09:50 22.2 73 14.33 17.1 22 30 1027.9 0 31.2 33.3 59.3 156.4 164.5 570.5
01/09 09:40 21 77 14.1 16.8 24 30 1027.8 0 30.8 33.4 59.2 156.1 163.8 567.8
01/09 09:30 21.7 76 14.5 17.3 24 30 1027.8 0 31.6 33.8 60.4 159.4 168.1 582.7
01/09 09:20 21.2 77 14.27 17 24 32 1027.7 0 31.2 33.6 59.8 157.7 165.8 574.9
01/09 09:10 21.2 76 14.08 16.8 24 32 1027.8 0 30.8 33.3 59.0 155.4 163.1 565.4
01/09 09:00 21.7 76 14.5 17.3 24 33 1027.8 0 31.6 33.8 60.4 159.4 168.1 582.7
01/09 08:50 21.9 62 11.96 14.3 24 32 1027.7 0 26.2 29.4 49.5 130.3 132.4 458.1
01/09 08:40 22 61 11.84 14.1 24 30 1027.8 0 26.0 29.2 49.0 128.8 130.6 452.0
01/09 08:30 22 63 12.23 14.6 26 32 1027.6 0 26.8 29.8 50.5 133.0 135.8 470.2
01/09 08:20 21.6 64 12.14 14.5 24 32 1027.5 0 26.6 29.8 50.4 132.7 135.3 468.3
01/09 08:10 21.9 66 12.73 15.3 24 30 1027.4 0 27.9 30.7 52.7 138.7 142.7 494.4
01/09 08:00 21.7 65 12.4 14.8 24 33 1027.3 0 27.2 30.2 51.4 135.4 138.6 479.9
01/09 07:50 21.7 65 12.4 14.8 26 33 1027.2 0 27.2 30.2 51.4 135.4 138.6 479.8
01/09 07:40 21.4 63 11.81 14.1 24 33 1027.1 0 26.0 29.3 49.2 129.4 131.1 453.8
01/09 07:30 21.4 65 12.19 14.6 24 30 1026.9 0 26.8 29.9 50.7 133.5 136.2 471.6
01/09 07:20 21.1 63 11.61 13.8 26 30 1026.9 0 25.6 29.1 48.5 127.7 128.9 446.1
01/09 07:10 20.8 66 11.95 14.2 24 32 1026.8 0 26.3 29.7 50.1 131.9 134.0 463.8

Last Refresh: 01-Sep-2026 23:23:57

Bureau of Meteorology